• Join FlightAware (Why Join?)
  • Login
  • US Flag 
11:27AM EST


 

Airport Tracker/Info


-or-


 

Live Flight TrackerFlight Track Log ✈ UPS618 ✈ 02-Aug-2013 ✈ KPIA - KRFD

Flight Track Log - Related Links

Times and Time Zones

All times are in EDT time to prevent confusion due to time zone crossing. See the UPS618 flight status page for this flight to view local times or setup timezone preferences in your user account.

Time Position Orientation Groundspeed Altitude Reporting Facility
EDT Latitude Longitude Course Direction KTS MPH feet Rate Location/Type
06:16AM 40.7140 -89.7430 343° North 238 274 4,700  Level FlightAware
06:17AM 40.7440 -89.7530 346° North 269 310 6,300 4,174 Climbing FlightAware
06:17AM 40.7680 -89.7620 344° North 274 315 7,900 4,950 Climbing FlightAware
06:17AM 40.7930 -89.7710 345° North 277 319 9,600 4,596 Climbing FlightAware
06:18AM 40.8260 -89.7810 347° North 293 337 11,500 3,382 Climbing FlightAware
06:18AM 40.8670 -89.7650 16° North 347 399 12,700 2,769 Climbing FlightAware
06:19AM 40.9250 -89.7300 25° Northeast 372 428 14,500 1,971 Climbing FlightAware
06:19AM 40.9750 -89.6990 25° Northeast 373 429 15,000 441 Climbing FlightAware
06:20AM 41.0310 -89.6660 24° Northeast 368 423 15,000  Level FlightAware
06:21AM 41.0880 -89.6320 24° Northeast 367 422 15,000  Level FlightAware
06:21AM 41.1430 -89.5990 24° Northeast 361 415 15,000  Level FlightAware
06:22AM 41.1930 -89.5780 18° North 358 412 15,000  Level FlightAware
06:22AM 41.2540 -89.5540 16° North 359 413 15,000  Level FlightAware
06:23AM 41.3110 -89.5340 15° North 359 413 15,000 -176 Level FlightAware
06:23AM 41.3640 -89.5140 16° North 352 405 14,800 -1,433 Descending FlightAware
06:24AM 41.4170 -89.4950 15° North 348 400 13,400 -2,417 Descending FlightAware
06:25AM 41.4740 -89.4740 15° North 344 396 11,900 -2,206 Descending FlightAware
06:25AM 41.5220 -89.4560 16° North 344 396 10,900 -1,522 Descending FlightAware
06:26AM 41.5750 -89.4360 16° North 319 367 10,200 -1,000 Descending FlightAware
06:26AM 41.6090 -89.4230 16° North 303 349 9,900 -1,091 Descending FlightAware
06:27AM 41.6360 -89.4130 15° North 300 345 9,400 -1,463 Descending FlightAware
06:27AM 41.6640 -89.4030 15° North 298 343 8,900 -1,317 Descending FlightAware
06:27AM 41.6910 -89.3920 17° North 295 339 8,500 -1,050 Descending FlightAware
06:28AM 41.7170 -89.3830 14° North 293 337 8,200 -955 Descending FlightAware
06:28AM 41.7490 -89.3710 16° North 294 338 7,800 -1,256 Descending FlightAware
06:28AM 41.7720 -89.3620 16° North 290 334 7,300 -2,154 Descending FlightAware
06:29AM 41.7980 -89.3520 16° North 287 330 6,400 -2,727 Descending FlightAware
06:29AM 41.8300 -89.3410 14° North 283 326 5,300 -2,634 Descending FlightAware
06:29AM 41.8510 -89.3330 16° North 281 323 4,600 -1,610 Descending FlightAware
06:30AM 41.8820 -89.3210 16° North 279 321 4,200 -818 Descending FlightAware
06:30AM 41.9060 -89.3120 16° North 272 313 4,000 -273 Descending FlightAware
06:30AM 41.9340 -89.3010 16° North 254 292 4,000 -409 Level FlightAware
06:31AM 41.9570 -89.2930 15° North 248 285 3,700 -1,024 Descending FlightAware
06:31AM 41.9800 -89.2840 16° North 242 278 3,300 -1,024 Descending FlightAware
06:31AM 42.0010 -89.2770 14° North 234 269 3,000 -732 Descending FlightAware
06:32AM 42.0230 -89.2690 15° North 231 266 2,800 -450 Descending FlightAware
06:32AM 42.0420 -89.2620 15° North 220 253 2,700 -409 Descending FlightAware
06:33AM 42.0660 -89.2530 16° North 200 230 2,500 -400 Descending FlightAware
06:33AM 42.0810 -89.2480 14° North 195 224 2,400 -188 Descending FlightAware
06:33AM 42.0930 -89.2430 17° North 193 222 2,400  Level FlightAware
06:33AM 42.1110 -89.2360 16° North 192 221 2,400 162 Level FlightAware
06:34AM 42.1240 -89.2310 16° North 175 201 2,500  Climbing FlightAware
06:34AM 42.1390 -89.2250 17° North 141 162 2,400 -158 Descending FlightAware
06:34AM 42.1490 -89.2210 17° North 128 147 2,400  Level FlightAware
06:34AM 42.1550 -89.2160 32° Northeast 140 161 2,400 -316 Level FlightAware
06:35AM 42.1590 -89.2120 37° Northeast 150 173 2,300 -1,000 Descending FlightAware
06:35AM 42.1600 -89.2080 71° East 153 176 2,200 -889 Descending FlightAware
06:35AM 42.1670 -89.1880 65° Northeast 156 180 1,900 -837 Descending FlightAware
06:35AM 42.1730 -89.1700 66° East 153 176 1,600 -878 Descending FlightAware
06:36AM 42.1800 -89.1520 62° Northeast 144 166 1,300 -732 Descending FlightAware
06:36AM 42.1850 -89.1360 67° East 134 154 1,100 -600 Descending FlightAware
06:36AM 42.1900 -89.1210 66° East 128 147 900 -255 Descending FlightAware
06:37AM 42.1950 -89.1040 68° East 128 147 900  Level FlightAware